Location: *
(49.6619°S, 177.4603°W)
Time: 05:57:17
(UTC+00:00)

Cosmos 2184 Rocket - Pass Details

Date: 31 January 2023
Orbit: 958 x 1002 km, 82.9° (Epoch: 01 April)

Event Time Altitude Azimuth Distance (km) Brightness Sun altitude
Exits shadow 10:15:22 18° 340° (NNW) 2,203 5.5 -18.8°
Maximum altitude 10:20:10 70° 258° (WSW) 1,031 4.2 -19.2°
Drops below altitude 10° 10:26:25 10° 174° (S) 2,736 7.2 -19.6°
Sets 10:28:59 0° 171° (S) 3,692 8.0 -19.8°
